Wetbulb
69.44 70.92 71.55 72.13 72.48 73.07 73.41 73.42 73.93 75.08 74.73 73.68 72.52 72.57 71.92 73.26 73.89 75.36 76.59 77.47 77.29 77.39 78.13 76.14 76.98 77.63 76.92 76.77 76.79 76.37 76.70 75.86 77.53 74.73 73.85 74.68 75.88 75.60 76.02 76.26 75.92 76.11 76.32
68.34 69.89 70.97 71.52 72.02 72.78 73.35 73.80 74.20 75.09 75.04 74.33 74.08 73.69 73.42 73.56 74.11 75.26 76.48 77.24 77.42 77.92 77.29 77.41 76.15 78.07 75.89 77.63 76.93 76.86 74.77 75.55 76.85 73.19 72.34 69.83 72.01 75.35 75.66 75.94 76.11 76.06 76.47
67.54 68.63 70.02 71.02 71.69 72.15 73.35 73.61 74.49 75.20 75.24 75.26 74.84 74.36 74.84 75.03 74.40 74.58 75.12 76.39 77.04 77.32 77.72 77.78 77.25 77.85 76.52 74.61 76.90 76.20 75.84 72.70 76.10 75.79 72.84 68.83 68.14 70.83 74.22 75.17 76.31 76.17 75.97
68.94 68.50 69.89 70.72 71.44 72.17 73.52 74.11 74.75 75.22 75.63 75.56 74.63 74.14 71.75 71.41 72.85 73.99 74.89 75.55 77.04 76.80 76.82 77.60 77.64 77.91 76.64 77.18 75.92 76.00 76.38 76.13 72.84 75.48 75.71 75.31 73.72 68.87 67.87 72.93 75.14 75.64 75.32
69.30 69.53 69.98 71.56 72.33 72.58 72.83 73.98 74.91 75.09 75.64 75.72 75.86 73.69 73.04 73.18 74.18 74.55 75.78 77.73 77.02 77.12 76.89 77.69 77.93 77.43 76.92 77.10 76.87 77.56 76.18 76.17 74.84 74.59 74.29 74.89 73.50 74.54 71.20 68.90 71.23 73.95 73.83
69.40 70.34 70.57 71.84 72.47 72.84 73.01 73.63 74.55 74.79 75.67 75.69 75.51 75.07 74.11 74.03 73.55 74.36 73.96 74.17 74.70 75.76 77.28 77.40 78.18 77.96 77.38 77.04 76.39 77.95 77.37 77.39 76.77 75.73 75.10 73.11 72.37 72.41 72.19 70.80 71.16 70.21 72.16
69.30 69.98 70.07 69.63 71.72 72.40 72.92 73.41 74.21 74.27 74.89 75.41 75.18 75.00 75.23 75.47 75.42 76.25 73.11 74.42 73.73 74.25 76.00 77.78 77.91 77.28 78.01 77.67 77.01 77.61 77.19 77.18 76.54 76.85 74.70 75.33 74.33 74.38 73.05 71.90 70.82 70.33 71.92
69.26 69.98 70.74 71.04 70.57 72.42 73.15 73.55 73.90 74.55 74.94 75.36 75.64 75.86 76.14 74.94 74.66 75.03 74.12 74.05 73.48 74.96 76.65 76.92 77.44 77.70 77.27 77.85 77.96 77.99 76.08 76.58 76.39 76.85 77.00 74.81 74.58 74.89 74.43 72.93 71.63 69.74 70.56
69.31 69.76 70.57 71.48 71.24 72.04 73.24 73.58 73.93 74.76 75.22 75.09 75.70 75.89 76.04 76.05 75.27 75.85 75.62 75.12 76.13 75.15 76.53 77.17 77.15 77.06 77.12 77.56 77.87 76.01 76.42 76.30 76.96 76.44 77.09 76.36 74.73 74.74 75.16 74.76 74.30 72.27 68.79
69.61 70.06 70.60 71.02 72.37 73.17 73.68 74.29 74.38 74.58 75.41 75.25 75.66 75.73 75.95 76.49 76.62 75.99 75.91 76.26 76.04 76.84 76.80 76.68 76.90 76.90 77.06 77.51 77.34 76.07 77.05 76.74 76.14 75.85 76.67 76.70 75.52 75.42 75.19 75.45 74.89 74.54 75.05
69.73 70.26 70.74 71.64 72.39 73.42 73.76 73.78 74.30 74.57 74.97 75.54 75.60 75.75 75.76 76.14 76.53 75.90 76.06 76.42 76.89 77.11 77.40 77.25 77.19 76.79 76.75 77.34 77.36 76.58 76.61 76.32 76.76 77.19 76.71 76.86 77.84 75.98 74.91 75.33 75.11 74.65 76.47
70.98 71.23 71.35 71.64 72.03 72.63 73.29 73.59 74.35 74.07 74.08 75.46 75.81 75.56 76.02 75.96 75.38 75.86 75.93 76.59 76.74 77.21 77.25 77.43 77.20 76.59 76.54 77.02 76.54 75.71 75.63 76.05 75.71 76.00 76.76 76.05 76.34 76.89 77.00 75.59 76.16 75.49 77.31
70.42 71.31 71.63 71.77 72.20 72.57 73.25 73.47 73.87 74.33 74.64 74.93 75.03 75.18 74.97 75.57 75.50 75.87 76.44 76.70 76.75 77.07 76.58 76.78 76.99 77.03 76.38 77.09 76.67 76.41 75.97 76.20 76.09 76.08 76.29 76.03 76.18 77.09 77.85 77.12 78.26 76.89 75.91
70.13 70.84 71.31 71.68 72.26 72.68 73.27 73.62 73.83 74.51 74.67 74.34 74.85 74.43 73.17 74.34 75.22 76.30 76.50 76.64 77.12 76.89 76.65 76.61 76.58 76.88 77.09 76.46 76.41 76.19 76.26 76.11 75.81 76.91 76.86 76.41 76.26 76.59 76.38 75.90 76.00 76.72 76.79
69.26 70.45 70.87 71.23 71.74 72.42 72.82 73.43 73.70 74.33 74.71 74.05 73.92 74.32 75.42 75.59 75.88 75.95 76.14 76.70 76.90 76.59 76.93 77.26 76.41 76.70 76.33 75.85 76.16 75.65 75.77 76.06 75.93 76.45 76.91 76.70 75.14 71.41 71.97 74.71 75.56 75.32 74.43
68.35 69.21 69.87 69.80 69.71 70.36 71.63 72.86 73.88 74.67 74.65 74.27 73.94 74.95 75.18 75.25 75.54 75.48 75.59 75.93 75.73 76.14 76.32 76.07 76.14 76.26 75.25 69.63 68.93 73.02 75.47 75.53 75.75 75.07 76.15 76.41 71.85 69.93 66.66 66.62 65.60 69.27 73.53
68.50 68.95 68.96 69.21 69.72 68.38 69.93 71.32 72.27 73.44 73.13 72.15 73.44 74.33 75.35 75.12 75.17 75.18 75.32 75.08 75.12 75.84 76.29 75.73 75.78 75.64 76.27 66.90 66.87 68.96 74.71 75.16 75.61 75.68 75.73 75.12 73.79 72.49 73.95 65.64 62.97 62.97 62.98
68.28 68.97 68.77 68.89 68.58 68.90 69.22 69.44 71.38 71.46 71.59 71.30 70.98 71.73 72.33 72.24 73.24 74.30 74.97 75.41 75.41 75.72 75.86 75.57 75.85 75.87 75.81 64.94 65.34 67.77 75.34 75.60 75.68 75.76 75.79 75.17 73.25 71.34 72.96 73.43 72.33 70.97 70.87
68.19 68.53 68.94 68.61 67.87 68.11 66.60 67.17 68.61 70.39 69.53 69.60 69.55 69.57 69.42 69.10 69.85 70.63 72.35 73.66 75.82 75.64 74.92 75.29 75.73 76.01 75.90 62.32 62.47 67.77 75.20 75.32 73.53 73.63 73.73 72.97 70.85 58.61 60.95 72.33 70.88 69.10 67.25
67.89 67.57 67.60 67.51 66.69 65.65 66.65 66.41 67.62 68.52 68.21 68.16 67.76 67.55 66.51 65.64 65.14 67.58 69.20 71.67 73.68 74.45 74.64 75.34 76.39 72.17 76.50 59.77 60.66 67.97 74.46 72.05 70.69 70.96 68.24 59.53 65.17 56.48 58.23 70.07 69.75 67.31 63.27
66.98 67.51 67.14 65.40 64.15 65.47 65.75 64.80 66.04 67.40 66.51 66.78 66.28 65.02 63.77 62.80 63.06 63.42 65.75 68.61 71.67 74.23 74.08 73.83 74.47 75.25 74.48 66.65 59.11 59.65 73.79 70.82 68.95 67.47 65.50 60.83 54.89 53.33 53.51 57.69 65.92 63.49 63.52
65.33 65.27 65.30 64.97 64.34 64.97 66.14 65.14 66.81 67.16 66.74 66.53 65.74 63.09 61.18 59.51 58.56 59.50 66.42 67.43 70.57 72.35 69.81 65.24 63.98 67.07 67.98 61.36 58.18 58.57 64.16 65.30 67.79 65.85 63.66 59.77 53.42 52.55 53.96 58.05 53.94 53.63 58.02
64.01 64.66 63.16 63.30 63.49 64.08 65.38 65.02 67.13 66.70 66.72 66.32 64.23 61.78 60.35 57.69 56.75 56.63 60.03 65.55 68.16 65.16 62.31 60.48 59.17 59.25 60.46 62.29 57.30 57.30 59.29 60.94 63.55 64.80 58.44 53.42 51.13 51.87 54.16 55.15 56.14 55.97 62.57
63.36 64.15 63.24 62.13 62.20 63.50 65.53 67.02 67.42 66.71 66.75 64.38 63.90 61.17 59.06 55.02 52.66 51.03 56.01 56.39 60.25 61.64 59.83 58.06 55.77 55.39 56.65 57.54 58.67 58.63 58.42 57.48 57.76 57.75 58.12 56.44 56.43 56.50 57.02 60.64 61.50 63.49 62.70
60.97 61.45 61.37 61.30 61.91 64.32 64.80 67.33 66.07 66.54 66.23 63.27 64.71 61.88 59.14 57.15 53.03 47.80 46.79 51.33 51.18 55.39 54.91 54.04 54.58 53.68 50.78 48.54 48.89 53.25 55.63 54.16 52.72 55.63 57.16 57.85 58.53 59.49 59.79 60.41 61.48 61.88 61.81
61.33 62.01 62.06 61.85 61.94 62.97 64.09 66.12 67.15 67.68 65.51 62.97 64.18 61.93 59.51 57.86 55.93 52.25 49.41 46.46 45.58 44.80 44.38 46.22 50.01 49.16 47.15 46.22 45.03 44.03 45.13 46.17 49.69 55.06 55.72 55.85 56.61 56.83 57.64 58.05 59.09 60.02 60.09
MSLP
1009.40 1010.17 1011.09 1011.76 1012.48 1013.21 1013.99 1014.76 1015.25 1015.83 1016.30 1016.56 1016.56 1016.63 1016.56 1016.68 1016.94 1017.04 1017.68 1017.91 1017.84 1018.15 1018.30 1017.84 1018.09 1018.22 1018.15 1018.44 1018.47 1018.11 1017.94 1017.41 1017.67 1017.18 1016.24 1016.31 1016.47 1016.40 1016.28 1016.03 1016.02 1016.15 1016.36
1008.67 1009.57 1010.34 1011.09 1011.84 1012.68 1013.53 1014.43 1014.99 1015.67 1016.21 1016.36 1016.49 1016.39 1016.47 1016.41 1016.52 1016.85 1017.48 1017.68 1017.86 1018.06 1018.07 1018.12 1017.91 1018.15 1018.03 1018.35 1018.49 1018.52 1017.88 1017.58 1017.81 1017.33 1016.71 1015.64 1015.43 1015.60 1015.91 1016.04 1016.21 1016.17 1015.95
1007.87 1008.74 1009.62 1010.30 1011.08 1012.01 1012.93 1013.78 1014.68 1015.26 1015.92 1016.15 1016.61 1016.93 1016.87 1016.79 1016.79 1016.86 1017.17 1017.40 1017.69 1017.76 1017.96 1018.04 1017.95 1018.09 1018.22 1017.80 1018.31 1018.28 1018.34 1017.47 1017.59 1018.14 1017.54 1016.40 1015.52 1015.94 1015.80 1016.16 1016.00 1016.27 1015.80
1007.42 1008.23 1008.90 1009.68 1010.34 1011.28 1012.28 1013.20 1014.22 1014.90 1015.56 1016.03 1016.11 1016.38 1016.25 1016.09 1016.01 1016.28 1016.50 1016.82 1017.28 1017.46 1017.53 1017.75 1017.91 1018.00 1017.66 1018.03 1018.12 1018.16 1018.34 1018.26 1017.42 1017.49 1017.65 1017.98 1017.69 1016.64 1015.62 1015.28 1015.77 1015.88 1015.70
1006.68 1007.23 1008.15 1008.80 1009.71 1010.83 1011.60 1012.52 1013.66 1014.47 1014.91 1015.52 1015.73 1016.17 1016.23 1015.79 1015.78 1015.98 1016.32 1017.13 1016.99 1017.24 1017.24 1017.51 1017.70 1017.77 1017.66 1017.80 1018.07 1018.22 1018.39 1017.93 1017.70 1017.46 1017.34 1017.59 1017.31 1017.32 1016.79 1015.76 1015.25 1015.37 1015.26
1005.88 1006.53 1007.50 1008.30 1009.26 1010.29 1011.12 1011.91 1012.98 1013.93 1014.54 1015.03 1015.58 1015.78 1015.75 1015.92 1015.65 1015.90 1015.90 1016.18 1016.35 1016.63 1016.94 1017.12 1017.37 1017.47 1017.37 1017.68 1017.75 1018.07 1018.24 1018.12 1017.85 1017.59 1017.60 1017.12 1016.85 1016.44 1016.38 1015.95 1015.66 1015.41 1015.28
1005.16 1006.08 1007.08 1008.24 1008.86 1009.53 1010.39 1011.13 1012.22 1013.17 1013.81 1014.34 1014.76 1015.33 1015.67 1015.87 1015.92 1016.20 1015.91 1015.53 1015.57 1015.77 1016.12 1016.88 1017.09 1017.09 1017.28 1017.31 1017.50 1017.94 1018.03 1018.03 1017.90 1017.89 1017.18 1017.12 1017.06 1016.88 1016.72 1016.44 1015.92 1015.48 1015.20
1004.40 1005.45 1006.30 1007.56 1008.55 1008.91 1009.83 1010.65 1011.49 1012.45 1013.19 1013.66 1014.15 1014.70 1015.24 1015.38 1015.42 1015.53 1015.33 1015.53 1015.66 1015.32 1015.74 1016.29 1016.57 1016.88 1017.07 1017.33 1017.31 1017.90 1017.66 1017.59 1017.75 1017.72 1017.65 1017.07 1016.75 1016.64 1016.64 1016.47 1016.22 1015.70 1015.03
1004.12 1004.98 1005.90 1006.85 1008.16 1008.59 1009.39 1010.16 1010.93 1011.78 1012.34 1012.79 1013.50 1014.03 1014.50 1014.84 1014.60 1014.96 1015.20 1015.36 1015.54 1015.34 1015.61 1015.81 1016.20 1016.33 1016.64 1016.85 1017.09 1017.27 1017.36 1017.42 1017.46 1017.23 1017.30 1017.28 1016.64 1016.37 1016.34 1016.45 1016.34 1016.19 1015.54
1004.38 1004.91 1005.65 1006.33 1007.21 1008.19 1008.77 1009.63 1010.36 1010.93 1011.55 1012.15 1012.62 1013.10 1013.55 1014.07 1014.38 1014.66 1014.95 1015.04 1015.02 1015.31 1015.51 1015.64 1015.84 1016.07 1016.35 1016.56 1016.89 1017.00 1016.83 1017.10 1017.00 1016.77 1016.72 1016.97 1016.56 1016.28 1016.18 1016.37 1016.34 1016.19 1016.50
1004.61 1005.24 1005.82 1006.43 1007.00 1007.88 1008.59 1009.37 1009.83 1010.55 1011.06 1011.52 1011.98 1012.39 1012.75 1013.16 1013.52 1013.82 1014.24 1014.60 1014.87 1015.03 1015.24 1015.37 1015.52 1015.82 1016.18 1016.18 1016.54 1016.77 1016.62 1016.78 1016.94 1016.79 1016.72 1016.85 1016.89 1016.60 1015.87 1015.73 1015.89 1016.43 1016.72
1004.82 1005.48 1006.05 1006.65 1007.09 1007.67 1008.37 1008.85 1009.53 1010.15 1010.72 1010.92 1011.58 1012.00 1012.32 1012.85 1012.93 1012.97 1013.12 1013.68 1014.18 1014.55 1014.71 1014.84 1015.25 1015.43 1015.65 1015.90 1016.18 1016.16 1016.03 1016.33 1016.62 1016.64 1016.64 1016.55 1016.58 1016.47 1016.38 1016.24 1016.24 1016.32 1016.54
1005.33 1005.82 1006.34 1007.08 1007.62 1008.06 1008.49 1008.84 1009.23 1009.76 1010.06 1010.99 1011.20 1011.48 1011.82 1012.20 1012.42 1012.48 1012.69 1012.86 1013.23 1013.70 1014.06 1014.41 1014.61 1014.92 1015.13 1015.56 1015.77 1015.80 1015.88 1015.84 1015.84 1015.95 1016.06 1016.39 1016.38 1016.16 1016.35 1016.30 1016.09 1016.22 1016.21
1005.78 1006.19 1006.65 1007.21 1007.84 1008.33 1008.70 1009.10 1009.35 1009.60 1010.04 1010.29 1010.68 1011.33 1011.84 1011.83 1011.83 1012.17 1012.38 1012.53 1012.65 1013.06 1013.39 1013.60 1013.84 1014.23 1014.49 1014.69 1014.84 1015.10 1015.41 1015.48 1015.51 1015.47 1015.68 1015.73 1015.75 1015.80 1016.32 1016.30 1016.40 1016.36 1016.16
1005.91 1006.65 1007.20 1007.84 1008.34 1008.71 1008.96 1009.30 1009.54 1009.87 1010.15 1010.44 1010.56 1010.69 1011.17 1011.29 1011.48 1011.71 1011.88 1012.04 1012.26 1012.39 1012.80 1013.14 1013.25 1013.45 1013.65 1013.80 1014.16 1014.42 1014.55 1014.99 1014.98 1014.86 1015.01 1015.29 1015.54 1016.07 1016.42 1016.35 1016.35 1016.53 1016.07
1006.16 1006.96 1007.70 1008.45 1009.01 1009.35 1009.58 1009.61 1009.81 1009.91 1010.15 1010.19 1010.28 1010.37 1010.46 1010.74 1010.80 1011.19 1011.35 1011.46 1011.72 1011.93 1012.29 1012.51 1012.65 1012.78 1012.88 1012.88 1013.44 1013.96 1014.07 1014.25 1014.45 1014.55 1014.83 1015.05 1015.82 1016.22 1016.60 1016.77 1016.70 1016.66 1016.32
1006.28 1007.07 1007.88 1008.63 1009.15 1009.86 1010.13 1010.04 1010.20 1010.25 1010.36 1010.54 1010.45 1010.31 1010.25 1010.25 1010.33 1010.57 1010.72 1010.82 1010.99 1011.19 1011.39 1011.67 1011.91 1012.02 1012.35 1012.60 1013.04 1013.47 1013.52 1013.77 1014.01 1014.18 1014.39 1014.91 1015.28 1015.80 1016.16 1016.89 1016.99 1017.02 1016.95
1006.40 1007.25 1008.18 1008.90 1009.63 1009.98 1010.23 1010.55 1010.34 1010.44 1010.47 1010.56 1010.74 1010.71 1010.59 1010.40 1010.19 1010.09 1010.00 1009.99 1010.08 1010.16 1010.42 1010.75 1010.91 1011.28 1011.50 1012.07 1012.55 1013.08 1013.26 1013.45 1013.73 1013.93 1014.27 1014.73 1015.37 1015.85 1015.79 1015.93 1016.30 1016.55 1017.02
1006.74 1007.69 1008.43 1009.23 1010.01 1010.28 1011.00 1011.06 1010.90 1010.72 1010.76 1010.75 1010.96 1011.06 1011.09 1010.93 1010.62 1010.16 1009.62 1009.36 1009.23 1009.33 1009.57 1009.77 1009.99 1010.26 1010.64 1011.29 1011.89 1012.69 1012.90 1013.25 1014.06 1014.40 1014.66 1015.07 1015.60 1016.29 1016.29 1015.84 1016.26 1016.88 1017.51
1007.46 1008.13 1008.70 1009.46 1010.10 1010.86 1011.03 1011.20 1011.10 1010.99 1010.84 1011.18 1011.36 1011.35 1011.33 1011.09 1010.82 1010.36 1009.62 1009.02 1008.47 1008.44 1008.66 1008.85 1009.22 1009.52 1009.91 1010.96 1011.49 1011.72 1012.10 1013.10 1013.92 1014.55 1015.47 1015.59 1015.93 1016.38 1016.53 1016.24 1016.26 1016.87 1017.67
1008.03 1008.50 1008.98 1009.75 1010.65 1011.01 1011.19 1011.30 1011.16 1010.99 1011.54 1011.63 1011.53 1011.41 1011.31 1011.06 1010.59 1010.08 1009.47 1008.64 1008.07 1007.88 1008.23 1008.48 1008.58 1009.03 1009.38 1010.75 1011.16 1011.44 1011.65 1012.62 1013.46 1014.24 1015.09 1016.07 1016.39 1016.74 1017.02 1016.81 1017.10 1017.33 1017.73
1008.34 1008.93 1009.27 1009.95 1010.77 1011.14 1011.14 1011.17 1010.90 1011.38 1011.47 1011.56 1011.48 1011.48 1011.39 1011.03 1010.55 1009.68 1008.35 1008.09 1007.78 1007.59 1008.04 1008.73 1009.19 1009.54 1010.01 1010.47 1011.19 1011.28 1011.32 1012.47 1013.37 1014.35 1014.95 1016.10 1016.67 1016.91 1017.06 1017.24 1017.63 1017.55 1017.76
1008.51 1008.99 1009.65 1010.19 1010.84 1011.28 1011.32 1011.08 1011.04 1011.26 1011.36 1011.54 1011.60 1011.52 1011.39 1011.17 1010.62 1009.57 1008.39 1007.68 1007.42 1007.77 1008.56 1009.02 1009.59 1010.08 1010.50 1010.76 1011.14 1011.47 1011.72 1012.63 1013.55 1014.60 1015.48 1016.11 1016.67 1016.85 1017.25 1017.30 1017.44 1017.51 1017.16
1009.08 1009.46 1009.97 1010.48 1010.91 1011.32 1011.30 1010.97 1011.16 1011.31 1011.47 1011.81 1011.92 1012.00 1011.73 1011.85 1011.40 1010.47 1009.44 1008.66 1008.21 1008.47 1008.94 1009.56 1010.21 1010.71 1010.90 1011.37 1011.70 1011.66 1012.25 1013.29 1014.30 1015.49 1016.05 1016.37 1016.82 1017.25 1017.37 1017.35 1017.47 1017.43 1017.23
1009.70 1010.06 1010.34 1010.63 1010.95 1011.22 1011.41 1011.07 1011.37 1011.29 1011.46 1012.26 1012.10 1012.08 1012.34 1012.60 1012.56 1012.05 1011.49 1010.59 1010.18 1009.91 1010.44 1010.95 1011.43 1011.87 1012.47 1012.78 1012.10 1012.10 1012.08 1013.29 1014.82 1015.10 1016.49 1016.62 1017.19 1017.66 1017.72 1017.43 1017.73 1017.79 1017.71
1009.75 1010.18 1010.52 1010.72 1011.12 1011.42 1011.47 1011.27 1011.32 1011.23 1011.70 1012.48 1012.38 1012.75 1013.16 1013.35 1013.22 1013.02 1012.79 1012.67 1012.29 1012.15 1012.39 1012.54 1012.55 1013.11 1013.81 1013.21 1014.00 1014.39 1014.76 1014.55 1014.87 1015.46 1016.65 1017.23 1017.49 1017.53 1017.41 1017.59 1017.82 1018.01 1018.14
Wind_Speed
15 14 13 12 13 12 13 13 12 11 9 7 7 7 7 6 6 4 5 5 5 6 4 4 3 3 3 4 3 4 1 3 3 5 5 4 6 6 5 5 5 3 5
15 14 15 14 14 14 13 13 13 13 10 8 6 5 5 6 6 5 5 6 6 5 5 3 3 1 4 1 3 4 5 3 3 6 6 5 3 4 2 3 3 3 4
16 15 15 15 15 14 15 14 14 14 13 10 7 6 5 4 6 6 7 8 7 7 7 6 5 3 4 4 3 4 4 5 1 3 4 6 6 7 5 3 1 3 3
15 11 15 16 16 16 15 14 14 14 13 14 10 9 8 9 8 7 7 7 9 7 8 7 6 5 4 3 4 5 5 4 5 1 1 3 4 6 6 3 3 5 4
19 17 16 16 15 15 15 15 15 15 14 14 12 10 10 8 6 6 7 7 7 9 8 7 7 6 6 4 3 3 4 3 5 3 2 2 4 3 6 8 6 5 5
19 17 15 14 13 14 14 15 16 16 15 14 14 13 11 11 7 6 7 8 8 8 10 9 8 7 6 5 5 4 5 5 4 4 3 5 5 5 4 6 7 8 6
17 16 17 14 15 16 17 16 17 16 17 16 15 15 14 12 11 8 8 7 7 7 9 10 9 8 8 6 6 6 5 6 6 4 5 3 5 4 6 6 7 7 5
17 17 17 15 13 17 17 16 16 16 17 17 16 14 14 10 10 11 9 7 9 6 8 9 10 9 8 8 6 5 7 7 6 7 5 6 5 5 5 6 7 7 7
14 16 16 16 16 16 16 15 16 15 16 17 15 14 14 14 11 11 10 9 9 8 7 9 10 10 10 9 7 8 7 7 7 7 7 7 7 6 5 6 6 7 8
10 12 13 15 14 15 14 15 16 16 16 16 15 14 15 14 13 11 11 11 10 9 9 9 10 10 11 10 9 9 9 9 8 8 7 6 7 7 7 4 7 7 5
7 9 10 11 13 12 12 14 14 15 15 14 14 15 15 16 15 14 13 13 12 11 10 10 10 10 10 11 9 11 11 7 10 9 9 9 9 9 8 7 5 6 5
7 7 9 10 10 10 10 11 11 12 14 13 13 14 14 14 15 15 16 14 13 13 12 12 11 12 12 11 12 11 11 10 11 11 10 11 7 11 9 7 7 8 5
7 7 7 8 7 8 8 9 10 11 11 12 13 12 12 14 15 15 15 15 14 14 14 13 12 12 12 11 12 12 12 12 11 11 10 10 11 10 7 8 7 4 4
7 6 6 5 5 5 6 6 7 8 8 11 12 10 10 13 13 13 13 14 14 14 14 15 14 13 13 13 12 11 11 12 11 10 9 10 10 9 8 7 6 6 6
8 7 7 6 5 5 4 4 5 6 8 10 12 13 12 13 11 12 13 13 13 13 15 14 15 15 14 11 13 13 12 11 12 11 8 10 5 7 2 5 4 4 7
8 8 7 6 6 5 3 3 2 2 4 8 10 10 11 10 12 12 13 13 14 14 14 15 16 16 13 12 11 11 11 11 10 10 7 5 7 8 6 4 7 6 5
9 8 7 6 6 5 3 2 2 2 2 3 6 8 9 11 11 12 13 13 15 15 14 15 16 16 16 9 12 13 13 10 9 9 8 8 5 5 8 7 8 7 7
7 7 7 7 6 6 5 2 1 2 2 3 5 6 8 10 11 11 14 15 15 16 14 15 17 15 13 12 15 13 13 10 10 8 8 9 7 3 5 7 6 4 4
6 6 6 6 6 5 4 2 1 2 4 5 7 7 8 11 13 14 15 16 14 14 14 16 16 15 15 13 14 14 12 7 8 8 7 7 7 2 4 5 7 6 4
7 7 8 7 6 5 4 2 1 3 4 7 9 11 11 13 14 15 16 16 16 14 14 15 16 15 16 15 16 17 9 11 9 9 8 10 8 5 0 5 6 6 5
7 6 6 6 5 5 4 3 2 4 5 6 9 10 11 11 13 15 15 16 15 14 14 14 12 12 12 12 15 15 14 12 11 10 9 7 9 8 7 6 5 5 6
7 6 5 5 6 6 5 4 2 3 2 6 8 10 10 8 9 12 10 13 15 14 8 7 4 4 7 10 14 12 10 14 11 10 9 10 10 9 7 6 6 8 6
4 5 5 5 5 4 4 5 5 2 5 7 9 10 11 10 9 8 9 9 11 6 6 7 6 4 3 5 11 9 15 9 11 8 10 13 8 10 7 8 6 7 6
3 3 4 5 5 5 6 3 5 3 5 7 9 9 11 11 12 8 7 7 6 3 5 5 4 4 5 5 7 10 13 19 13 12 6 8 8 10 6 5 4 5 5
4 4 5 5 6 6 5 6 4 3 7 3 7 11 9 9 10 13 11 8 10 9 9 8 6 7 6 6 12 4 14 13 11 13 7 5 6 6 2 5 5 5 5
5 5 6 6 6 6 6 7 6 5 7 5 6 9 8 6 6 9 13 27 26 28 24 19 17 13 18 26 25 23 17 18 14 10 8 7 5 4 5 6 5 5 4
Wind_Direction
190 187 190 187 181 185 185 191 191 175 182 184 190 190 195 187 195 201 144 179 165 172 192 217 209 255 288 3 310 304 292 329 11 282 222 234 235 248 261 269 294 309 275
189 193 191 198 194 187 189 187 195 185 192 185 201 210 208 201 205 194 171 213 188 197 205 241 225 43 290 264 311 304 310 271 26 321 294 289 279 151 358 333 316 330 308
201 192 199 202 198 195 193 188 192 190 194 199 192 195 210 239 212 210 196 200 210 212 227 216 252 204 264 259 265 256 288 305 257 330 315 309 338 345 140 179 61 331 336
230 191 200 204 199 198 195 190 188 191 195 193 197 207 213 217 216 217 208 193 211 212 218 218 213 221 261 288 243 230 286 269 289 218 202 314 341 321 314 218 98 277 339
213 203 213 197 200 194 194 191 186 190 199 192 213 195 220 211 218 220 202 229 197 219 216 208 216 218 234 187 247 236 241 229 292 285 293 270 259 227 297 315 346 310 347
213 207 207 196 196 191 194 188 185 193 197 195 202 210 209 234 239 215 206 214 210 201 214 212 219 219 230 210 204 211 219 262 277 282 279 282 307 312 308 305 318 325 310
202 206 185 204 200 190 194 191 187 193 196 198 198 206 215 220 233 238 225 252 210 215 195 214 216 215 214 210 217 201 235 228 251 233 284 268 273 295 293 294 300 316 310
200 201 195 189 201 196 193 197 191 195 195 200 202 202 213 221 224 229 245 211 250 222 216 206 227 220 235 232 214 215 239 221 231 239 260 290 280 273 277 288 309 304 300
197 193 199 188 198 202 202 198 202 202 201 201 200 203 207 223 227 238 220 231 242 257 233 226 223 222 222 235 240 242 230 260 229 243 239 256 273 272 269 272 292 308 301
185 194 196 201 193 205 203 199 204 205 208 210 204 202 206 210 219 224 230 245 252 235 251 227 226 224 224 227 232 255 228 238 245 239 238 254 271 264 252 279 252 250 337
170 193 199 205 201 203 210 212 206 218 204 205 206 213 212 210 208 213 222 232 240 235 226 228 228 232 237 233 230 239 276 241 246 251 260 248 256 268 267 236 254 269 254
153 173 188 199 210 208 216 225 215 207 222 211 213 212 218 223 219 217 213 217 226 234 234 231 221 229 228 233 232 238 246 234 251 261 262 266 250 242 248 267 278 272 250
135 149 159 168 191 200 215 220 221 216 209 217 213 220 220 222 231 226 225 218 219 224 233 230 230 219 230 231 235 239 248 248 246 243 252 259 262 262 272 262 274 270 295
126 121 131 135 153 175 193 213 222 226 212 222 217 217 214 233 230 235 235 233 224 228 233 231 227 233 230 229 229 234 239 248 246 251 258 262 260 263 262 242 261 269 288
143 131 131 125 127 127 151 178 207 217 221 228 232 225 216 222 233 249 237 236 238 232 238 243 239 231 230 230 226 234 238 240 250 259 247 248 267 59 73 268 235 249 244
146 139 133 133 119 103 89 81 80 196 235 238 249 253 243 239 241 238 239 234 232 235 240 241 238 240 237 218 193 228 229 235 242 259 258 215 140 119 113 98 67 35 291
168 164 152 150 133 133 144 145 144 164 190 274 287 276 264 257 246 238 239 239 237 237 230 235 236 234 242 208 188 193 230 231 234 240 231 205 146 197 153 127 118 83 64
162 156 159 148 140 154 101 22 85 61 0 313 311 303 289 281 275 272 253 240 237 236 230 230 229 230 230 195 187 187 224 225 228 218 193 200 161 171 213 183 166 137 79
148 149 149 147 157 144 140 137 186 4 336 331 319 307 294 282 279 272 259 255 244 233 225 228 229 228 232 169 176 182 206 187 176 172 168 158 155 91 320 201 146 126 108
148 161 156 155 173 157 174 166 118 324 338 342 328 318 305 292 282 277 269 264 251 239 236 227 231 227 226 167 187 187 186 166 165 153 139 60 120 107 279 178 168 146 114
157 161 166 163 178 177 184 177 247 19 352 335 324 320 309 294 285 280 257 255 250 240 233 234 227 227 222 180 190 220 176 174 171 155 150 132 122 97 66 45 120 120 135
161 196 181 175 169 184 182 188 176 62 14 351 348 339 332 319 305 296 246 241 242 233 222 148 135 146 163 163 197 199 159 145 146 162 139 134 126 121 118 119 134 163 174
210 198 190 179 168 190 197 205 114 54 43 22 8 6 359 351 338 331 344 244 236 150 161 158 161 150 133 163 168 172 135 149 127 138 124 115 130 128 111 118 163 201 184
221 216 194 179 184 192 211 208 122 84 73 42 29 28 25 17 10 358 11 24 26 115 146 136 121 127 120 120 137 125 110 100 100 102 112 118 97 78 114 99 53 32 61
173 190 182 174 186 174 197 156 128 113 98 45 63 60 40 33 44 46 23 38 40 64 71 58 65 89 54 49 46 57 123 113 108 111 76 87 90 95 102 111 119 124 126
158 174 169 156 157 171 172 157 168 139 101 82 40 65 55 39 53 62 60 50 58 57 57 66 89 70 70 75 66 62 51 81 92 92 105 94 93 98 85 101 108 104 95